| time (UTC) | temp C | wind direction | speed KPH | gust KPH | rain 1hr cm | rain 24hr cm | rain mn cm | humidity % | barometer mb |
| 20260505102004 | 12 | 139 | 0.0 | 11.3 | 0.00 | 0.00 | 0.00 | 94 | 1009.4 |
| 20260505101503 | 12 | 162 | 3.2 | 11.3 | 0.00 | 0.00 | 0.00 | 94 | 1009.5 |
| 20260505100958 | 12 | 163 | 3.2 | 4.8 | 0.00 | 0.00 | 0.00 | 93 | 1009.2 |
| 20260505100455 | 12 | 146 | 1.6 | 8.0 | 0.00 | 0.00 | 0.00 | 93 | 1009.1 |
| 20260505095951 | 12 | 159 | 6.4 | 8.0 | 0.00 | 0.00 | 0.00 | 93 | 1009.1 |
| 20260505095448 | 12 | 149 | 1.6 | 8.0 | 0.00 | 0.00 | 0.00 | 94 | 1009.2 |
| 20260505094944 | 12 | 140 | 1.6 | 3.2 | 0.00 | 0.00 | 0.00 | 94 | 1009.2 |
| 20260505094441 | 12 | 162 | 3.2 | 9.7 | 0.00 | 0.00 | 0.00 | 94 | 1009.2 |
| 20260505093937 | 12 | 147 | 0.0 | 8.0 | 0.00 | 0.00 | 0.00 | 94 | 1009.2 |
| 20260505093434 | 12 | 171 | 4.8 | 4.8 | 0.00 | 0.00 | 0.00 | 94 | 1009.2 |
| 20260505092931 | 12 | 135 | 1.6 | 4.8 | 0.00 | 0.00 | 0.00 | 94 | 1009.4 |
| 20260505092429 | 12 | 171 | 0.0 | 8.0 | 0.00 | 0.00 | 0.00 | 94 | 1009.1 |
| 20260505091926 | 12 | 147 | 0.0 | 3.2 | 0.00 | 0.00 | 0.00 | 94 | 1009.0 |
| 20260505091423 | 12 | 149 | 1.6 | 4.8 | 0.00 | 0.00 | 0.00 | 94 | 1009.3 |
| 20260505090921 | 12 | 164 | 8.0 | 16.1 | 0.00 | 0.00 | 0.00 | 94 | 1009.0 |
| 20260505090420 | 12 | 173 | 4.8 | 11.3 | 0.00 | 0.00 | 0.00 | 94 | 1009.2 |
| 20260505085917 | 12 | 152 | 8.0 | 11.3 | 0.00 | 0.00 | 0.00 | 94 | 1009.2 |
| 20260505085415 | 12 | 176 | 3.2 | 8.0 | 0.00 | 0.00 | 0.00 | 94 | 1009.5 |
| 20260505084913 | 12 | 134 | 6.4 | 9.7 | 0.00 | 0.00 | 0.00 | 94 | 1009.3 |
| 20260505084410 | 12 | 159 | 4.8 | 9.7 | 0.00 | 0.00 | 0.00 | 94 | 1009.2 |
| 20260505083908 | 12 | 169 | 3.2 | 4.8 | 0.00 | 0.00 | 0.00 | 93 | 1009.0 |
| 20260505083406 | 12 | 177 | 1.6 | 14.5 | 0.00 | 0.00 | 0.00 | 93 | 1009.0 |
| 20260505082901 | 12 | 184 | 4.8 | 11.3 | 0.00 | 0.00 | 0.00 | 93 | 1009.0 |
| 20260505082357 | 12 | 145 | 3.2 | 4.8 | 0.00 | 0.00 | 0.00 | 93 | 1009.2 |
| 20260505081854 | 12 | 167 | 3.2 | 14.5 | 0.00 | 0.00 | 0.00 | 93 | 1009.2 |
| 20260505081351 | 12 | 158 | 4.8 | 9.7 | 0.00 | 0.00 | 0.00 | 92 | 1009.1 |
| 20260505080848 | 12 | 152 | 6.4 | 9.7 | 0.00 | 0.00 | 0.00 | 92 | 1009.3 |
| 20260505080344 | 12 | 145 | 6.4 | 9.7 | 0.00 | 0.00 | 0.00 | 92 | 1009.0 |
| 20260505075839 | 12 | 127 | 6.4 | 9.7 | 0.00 | 0.00 | 0.00 | 92 | 1009.0 |
| 20260505075337 | 12 | 171 | 4.8 | 11.3 | 0.00 | 0.00 | 0.00 | 92 | 1009.0 |
| 20260505074834 | 12 | 170 | 4.8 | 9.7 | 0.00 | 0.00 | 0.00 | 92 | 1008.9 |
| 20260505074331 | 12 | 170 | 4.8 | 14.5 | 0.00 | 0.00 | 0.00 | 92 | 1009.1 |
| 20260505073828 | 12 | 183 | 4.8 | 11.3 | 0.00 | 0.00 | 0.00 | 92 | 1009.0 |
| 20260505073326 | 12 | 203 | 4.8 | 8.0 | 0.00 | 0.00 | 0.00 | 92 | 1009.0 |
| 20260505072823 | 12 | 210 | 11.3 | 16.1 | 0.00 | 0.00 | 0.00 | 92 | 1008.8 |
| 20260505072319 | 12 | 159 | 4.8 | 8.0 | 0.00 | 0.00 | 0.00 | 92 | 1008.9 |
| 20260505071815 | 12 | 151 | 4.8 | 20.9 | 0.00 | 0.00 | 0.00 | 91 | 1009.3 |
| 20260505071311 | 12 | 141 | 4.8 | 9.7 | 0.00 | 0.00 | 0.00 | 91 | 1009.1 |
| 20260505070809 | 12 | 189 | 8.0 | 9.7 | 0.00 | 0.00 | 0.00 | 91 | 1009.1 |
| 20260505070306 | 12 | 143 | 3.2 | 14.5 | 0.00 | 0.00 | 0.00 | 91 | 1008.9 |
| 20260505065800 | 12 | 151 | 4.8 | 11.3 | 0.00 | 0.00 | 0.00 | 91 | 1008.9 |
| 20260505065258 | 12 | 176 | 4.8 | 9.7 | 0.00 | 0.00 | 0.00 | 90 | 1009.3 |
| 20260505064755 | 12 | 209 | 4.8 | 4.8 | 0.00 | 0.00 | 0.00 | 90 | 1009.0 |
| 20260505064252 | 13 | 163 | 4.8 | 12.9 | 0.00 | 0.00 | 0.00 | 90 | 1009.2 |
| 20260505063750 | 13 | 171 | 4.8 | 11.3 | 0.00 | 0.00 | 0.00 | 90 | 1008.9 |
| 20260505063246 | 13 | 179 | 6.4 | 8.0 | 0.00 | 0.00 | 0.00 | 90 | 1009.3 |
| 20260505062742 | 13 | 121 | 4.8 | 9.7 | 0.00 | 0.00 | 0.00 | 90 | 1009.2 |
| 20260505062240 | 13 | 226 | 3.2 | 16.1 | 0.00 | 0.00 | 0.00 | 90 | 1009.3 |
| 20260505061737 | 13 | 170 | 8.0 | 12.9 | 0.00 | 0.00 | 0.00 | 90 | 1009.0 |
| 20260505061235 | 13 | 146 | 4.8 | 12.9 | 0.00 | 0.00 | 0.00 | 90 | 1009.3 |
| 20260505060732 | 13 | 147 | 6.4 | 9.7 | 0.00 | 0.00 | 0.00 | 90 | 1009.2 |
| 20260505060229 | 13 | 161 | 4.8 | 8.0 | 0.00 | 0.00 | 0.00 | 90 | 1009.5 |
| 20260505055724 | 13 | 183 | 6.4 | 11.3 | 0.00 | 0.00 | 0.00 | 90 | 1009.6 |
| 20260505055221 | 13 | 157 | 4.8 | 14.5 | 0.00 | 0.00 | 0.00 | 89 | 1009.6 |
| 20260505054718 | 13 | 162 | 1.6 | 12.9 | 0.00 | 0.00 | 0.00 | 89 | 1009.3 |
| 20260505054216 | 13 | 153 | 3.2 | 11.3 | 0.00 | 0.00 | 0.00 | 89 | 1009.7 |
| 20260505053714 | 13 | 224 | 8.0 | 9.7 | 0.00 | 0.00 | 0.00 | 89 | 1009.3 |
| 20260505053210 | 13 | 175 | 4.8 | 9.7 | 0.00 | 0.00 | 0.00 | 89 | 1009.4 |
| 20260505052707 | 13 | 139 | 3.2 | 4.8 | 0.00 | 0.00 | 0.00 | 88 | 1009.5 |
| 20260505052204 | 13 | 167 | 6.4 | 14.5 | 0.00 | 0.00 | 0.00 | 88 | 1009.5 |
| 20260505051701 | 13 | 163 | 6.4 | 9.7 | 0.00 | 0.00 | 0.00 | 87 | 1009.6 |
| 20260505051159 | 13 | 185 | 4.8 | 11.3 | 0.00 | 0.00 | 0.00 | 87 | 1009.5 |
| 20260505050656 | 13 | 234 | 8.0 | 9.7 | 0.00 | 0.00 | 0.00 | 86 | 1009.7 |
| 20260505050155 | 13 | 181 | 4.8 | 9.7 | 0.00 | 0.00 | 0.00 | 85 | 1009.9 |
| 20260505041625 | 13 | 168 | 6.4 | 14.5 | 0.00 | 0.00 | 0.00 | 80 | 1010.0 |
| 20260505041122 | 14 | 149 | 4.8 | 8.0 | 0.00 | 0.00 | 0.00 | 79 | 1010.1 |
| 20260505040619 | 14 | 125 | 4.8 | 4.8 | 0.00 | 0.00 | 0.00 | 79 | 1009.9 |
| 20260505040116 | 14 | 173 | 6.4 | 11.3 | 0.00 | 0.00 | 0.00 | 78 | 1009.8 |
| 20260505035613 | 14 | 149 | 4.8 | 11.3 | 0.00 | 0.00 | 0.00 | 78 | 1009.9 |
| 20260505035109 | 14 | 160 | 4.8 | 9.7 | 0.00 | 0.00 | 0.00 | 78 | 1010.0 |
| 20260505034606 | 14 | 160 | 3.2 | 9.7 | 0.00 | 0.00 | 0.00 | 78 | 1009.9 |
| 20260505034103 | 14 | 155 | 4.8 | 8.0 | 0.00 | 0.00 | 0.00 | 79 | 1010.0 |
| 20260505033559 | 14 | 175 | 8.0 | 12.9 | 0.00 | 0.00 | 0.00 | 79 | 1010.0 |
| 20260505033058 | 13 | 156 | 3.2 | 9.7 | 0.00 | 0.00 | 0.00 | 79 | 1009.7 |
| 20260505032555 | 14 | 167 | 4.8 | 9.7 | 0.00 | 0.00 | 0.00 | 78 | 1010.0 |
| 20260505032051 | 13 | 167 | 9.7 | 11.3 | 0.00 | 0.00 | 0.00 | 79 | 1009.8 |
| 20260505031549 | 13 | 188 | 9.7 | 12.9 | 0.00 | 0.00 | 0.00 | 78 | 1010.0 |
| 20260505031045 | 13 | 178 | 8.0 | 16.1 | 0.00 | 0.00 | 0.00 | 79 | 1010.0 |
| 20260505030542 | 13 | 149 | 3.2 | 8.0 | 0.00 | 0.00 | 0.00 | 78 | 1010.1 |
| 20260505030038 | 13 | 154 | 4.8 | 8.0 | 0.00 | 0.00 | 0.00 | 78 | 1010.0 |
| 20260505025534 | 13 | 165 | 4.8 | 16.1 | 0.00 | 0.00 | 0.00 | 77 | 1010.1 |
| 20260505025033 | 13 | 193 | 3.2 | 8.0 | 0.00 | 0.00 | 0.00 | 77 | 1009.9 |
| 20260505024530 | 13 | 159 | 1.6 | 11.3 | 0.00 | 0.00 | 0.00 | 76 | 1010.2 |
| 20260505024027 | 13 | 144 | 1.6 | 8.0 | 0.00 | 0.00 | 0.00 | 76 | 1009.9 |
| 20260505023524 | 13 | 194 | 11.3 | 14.5 | 0.00 | 0.00 | 0.00 | 76 | 1009.9 |
| 20260505023021 | 14 | 177 | 3.2 | 11.3 | 0.00 | 0.00 | 0.00 | 76 | 1010.0 |
| 20260505022519 | 14 | 210 | 4.8 | 8.0 | 0.00 | 0.00 | 0.00 | 75 | 1009.9 |
| 20260505022016 | 14 | 151 | 1.6 | 8.0 | 0.00 | 0.00 | 0.00 | 75 | 1010.0 |
| 20260505021512 | 14 | 168 | 3.2 | 9.7 | 0.00 | 0.00 | 0.00 | 75 | 1010.1 |
| 20260505021009 | 14 | 173 | 3.2 | 9.7 | 0.00 | 0.00 | 0.00 | 75 | 1010.0 |
| 20260505020503 | 14 | 253 | 4.8 | 11.3 | 0.00 | 0.00 | 0.00 | 75 | 1010.0 |
| 20260505020000 | 14 | 156 | 3.2 | 8.0 | 0.00 | 0.00 | 0.00 | 75 | 1010.2 |
| 20260505015457 | 14 | 140 | 4.8 | 12.9 | 0.00 | 0.00 | 0.00 | 75 | 1010.0 |
| 20260505014954 | 14 | 178 | 3.2 | 14.5 | 0.00 | 0.00 | 0.00 | 75 | 1010.2 |
| 20260505014451 | 14 | 158 | 3.2 | 12.9 | 0.00 | 0.00 | 0.00 | 75 | 1010.0 |
| 20260505013948 | 14 | 145 | 8.0 | 11.3 | 0.00 | 0.00 | 0.00 | 75 | 1010.3 |
| 20260505013445 | 13 | 152 | 6.4 | 11.3 | 0.00 | 0.00 | 0.00 | 75 | 1010.1 |
| 20260505012943 | 14 | 154 | 4.8 | 12.9 | 0.00 | 0.00 | 0.00 | 74 | 1009.7 |
| 20260505012441 | 13 | 199 | 6.4 | 9.7 | 0.00 | 0.00 | 0.00 | 74 | 1010.0 |
| 20260505011937 | 13 | 174 | 3.2 | 3.2 | 0.00 | 0.00 | 0.00 | 74 | 1009.9 |
| 20260505011433 | 14 | 163 | 3.2 | 4.8 | 0.00 | 0.00 | 0.00 | 74 | 1009.9 |
| 20260505010930 | 14 | 132 | 4.8 | 14.5 | 0.00 | 0.00 | 0.00 | 74 | 1009.6 |
| 20260505010426 | 14 | 151 | 4.8 | 9.7 | 0.00 | 0.00 | 0.00 | 73 | 1009.5 |
| 20260505005922 | 14 | 169 | 1.6 | 16.1 | 0.00 | 0.00 | 0.00 | 73 | 1009.4 |
| 20260505005419 | 14 | 75 | 1.6 | 17.7 | 0.00 | 0.00 | 0.00 | 73 | 1009.4 |
| 20260505004917 | 14 | 238 | 3.2 | 12.9 | 0.00 | 0.00 | 0.00 | 73 | 1009.5 |
| 20260505004413 | 13 | 164 | 4.8 | 9.7 | 0.00 | 0.00 | 0.00 | 74 | 1009.3 |
| 20260505003910 | 13 | 172 | 6.4 | 9.7 | 0.00 | 0.00 | 0.00 | 74 | 1009.4 |
| 20260505003407 | 13 | 194 | 4.8 | 16.1 | 0.00 | 0.00 | 0.00 | 75 | 1009.1 |
| 20260505002903 | 13 | 154 | 6.4 | 9.7 | 0.00 | 0.00 | 0.00 | 77 | 1009.3 |
| 20260505002400 | 13 | 149 | 1.6 | 16.1 | 0.00 | 0.00 | 0.00 | 77 | 1009.1 |
| 20260505001859 | 13 | 164 | 9.7 | 12.9 | 0.00 | 0.00 | 0.00 | 78 | 1009.1 |
| 20260505001355 | 13 | 138 | 0.0 | 16.1 | 0.00 | 0.00 | 0.00 | 78 | 1009.1 |
| 20260505000853 | 13 | 163 | 6.4 | 16.1 | 0.00 | 0.00 | 0.00 | 77 | 1008.9 |
| 20260505000351 | 13 | 180 | 6.4 | 12.9 | 0.00 | 0.00 | 0.00 | 77 | 1008.9 |
| 20260504235847 | 13 | 169 | 3.2 | 25.7 | 0.00 | 0.00 | 0.00 | 76 | 1008.7 |
| 20260504235344 | 13 | 181 | 14.5 | 17.7 | 0.00 | 0.00 | 0.00 | 75 | 1008.7 |
| 20260504234840 | 13 | 125 | 9.7 | 14.5 | 0.00 | 0.00 | 0.00 | 74 | 1008.9 |
| 20260504234338 | 14 | 132 | 8.0 | 11.3 | 0.00 | 0.00 | 0.00 | 73 | 1008.6 |
| 20260504233834 | 14 | 104 | 6.4 | 11.3 | 0.00 | 0.00 | 0.00 | 73 | 1008.6 |
| 20260504233330 | 14 | 178 | 4.8 | 12.9 | 0.00 | 0.00 | 0.00 | 72 | 1008.6 |
| 20260504232827 | 14 | 134 | 4.8 | 12.9 | 0.00 | 0.00 | 0.00 | 71 | 1008.5 |
| 20260504232324 | 15 | 146 | 11.3 | 17.7 | 0.00 | 0.00 | 0.00 | 70 | 1008.6 |
| 20260504231821 | 15 | 131 | 8.0 | 16.1 | 0.00 | 0.00 | 0.00 | 70 | 1008.4 |
| 20260504231317 | 15 | 131 | 4.8 | 17.7 | 0.00 | 0.00 | 0.00 | 70 | 1008.2 |
| 20260504230813 | 15 | 148 | 9.7 | 20.9 | 0.00 | 0.00 | 0.00 | 69 | 1008.5 |
| 20260504230312 | 15 | 196 | 9.7 | 17.7 | 0.00 | 0.00 | 0.00 | 69 | 1008.1 |
| 20260504225810 | 15 | 161 | 6.4 | 12.9 | 0.00 | 0.00 | 0.00 | 69 | 1008.0 |
| 20260504225306 | 15 | 173 | 8.0 | 14.5 | 0.00 | 0.00 | 0.00 | 67 | 1008.4 |
| 20260504224803 | 15 | 144 | 6.4 | 14.5 | 0.00 | 0.00 | 0.00 | 67 | 1008.4 |
| 20260504224301 | 15 | 134 | 6.4 | 16.1 | 0.00 | 0.00 | 0.00 | 66 | 1008.1 |
| 20260504223757 | 15 | 203 | 6.4 | 12.9 | 0.00 | 0.00 | 0.00 | 66 | 1008.4 |
| 20260504223252 | 15 | 196 | 8.0 | 14.5 | 0.00 | 0.00 | 0.00 | 65 | 1008.4 |
| 20260504222749 | 16 | 140 | 1.6 | 12.9 | 0.00 | 0.00 | 0.00 | 65 | 1008.4 |
| 20260504222246 | 16 | 128 | 6.4 | 12.9 | 0.00 | 0.00 | 0.00 | 63 | 1008.6 |
| 20260504221744 | 16 | 184 | 4.8 | 16.1 | 0.00 | 0.00 | 0.00 | 63 | 1008.3 |
| 20260504221241 | 16 | 132 | 3.2 | 17.7 | 0.00 | 0.00 | 0.00 | 62 | 1008.6 |
| 20260504220737 | 16 | 147 | 8.0 | 11.3 | 0.00 | 0.00 | 0.00 | 62 | 1008.3 |
| 20260504220235 | 17 | 224 | 11.3 | 17.7 | 0.00 | 0.00 | 0.00 | 61 | 1008.6 |
| 20260504215732 | 16 | 164 | 4.8 | 20.9 | 0.00 | 0.00 | 0.00 | 61 | 1008.7 |
| 20260504215228 | 17 | 96 | 6.4 | 11.3 | 0.00 | 0.00 | 0.00 | 61 | 1008.7 |
| 20260504214724 | 17 | 154 | 8.0 | 16.1 | 0.00 | 0.00 | 0.00 | 61 | 1008.6 |
| 20260504214221 | 17 | 211 | 8.0 | 29.0 | 0.00 | 0.00 | 0.00 | 59 | 1008.7 |
| 20260504213712 | 17 | 227 | 4.8 | 9.7 | 0.00 | 0.00 | 0.00 | 58 | 1008.7 |
| 20260504213208 | 17 | 177 | 6.4 | 12.9 | 0.00 | 0.00 | 0.00 | 57 | 1008.7 |
| 20260504212706 | 17 | 141 | 6.4 | 16.1 | 0.00 | 0.00 | 0.00 | 57 | 1008.6 |
| 20260504212203 | 17 | 157 | 8.0 | 20.9 | 0.00 | 0.00 | 0.00 | 57 | 1008.4 |
| 20260504211700 | 17 | 154 | 6.4 | 16.1 | 0.00 | 0.00 | 0.00 | 57 | 1008.7 |
| 20260504211155 | 18 | 140 | 6.4 | 11.3 | 0.00 | 0.00 | 0.00 | 57 | 1008.8 |
| 20260504210653 | 18 | 159 | 4.8 | 14.5 | 0.00 | 0.00 | 0.00 | 57 | 1008.6 |
| 20260504210150 | 18 | 147 | 8.0 | 16.1 | 0.00 | 0.00 | 0.00 | 56 | 1008.5 |
| 20260504205648 | 18 | 172 | 11.3 | 16.1 | 0.00 | 0.00 | 0.00 | 56 | 1008.6 |
| 20260504205144 | 18 | 199 | 8.0 | 20.9 | 0.00 | 0.00 | 0.00 | 55 | 1008.6 |
| 20260504204643 | 18 | 292 | 3.2 | 14.5 | 0.00 | 0.00 | 0.00 | 57 | 1008.7 |
| 20260504204141 | 18 | 141 | 4.8 | 9.7 | 0.00 | 0.00 | 0.00 | 54 | 1008.6 |
| 20260504203640 | 18 | 197 | 14.5 | 16.1 | 0.00 | 0.00 | 0.00 | 54 | 1008.9 |
| 20260504203137 | 18 | 204 | 4.8 | 20.9 | 0.00 | 0.00 | 0.00 | 53 | 1008.6 |
| 20260504202637 | 19 | 166 | 4.8 | 16.1 | 0.00 | 0.00 | 0.00 | 52 | 1008.7 |
| 20260504202134 | 18 | 167 | 3.2 | 12.9 | 0.00 | 0.00 | 0.00 | 53 | 1008.5 |
| 20260504201631 | 19 | 203 | 8.0 | 16.1 | 0.00 | 0.00 | 0.00 | 52 | 1008.8 |
| 20260504201129 | 18 | 159 | 1.6 | 17.7 | 0.00 | 0.00 | 0.00 | 53 | 1008.7 |
| 20260504200626 | 18 | 138 | 11.3 | 20.9 | 0.00 | 0.00 | 0.00 | 51 | 1008.8 |
| 20260504200122 | 20 | 176 | 16.1 | 22.5 | 0.00 | 0.00 | 0.00 | 50 | 1008.8 |
| 20260504195618 | 20 | 247 | 3.2 | 24.1 | 0.00 | 0.00 | 0.00 | 50 | 1008.9 |
| 20260504195115 | 20 | 214 | 8.0 | 12.9 | 0.00 | 0.00 | 0.00 | 51 | 1008.7 |
| 20260504194612 | 20 | 184 | 4.8 | 11.3 | 0.00 | 0.00 | 0.00 | 49 | 1008.6 |
| 20260504194107 | 20 | 172 | 0.0 | 14.5 | 0.00 | 0.00 | 0.00 | 50 | 1009.1 |
| 20260504193604 | 20 | 161 | 9.7 | 17.7 | 0.00 | 0.00 | 0.00 | 47 | 1008.9 |
| 20260504193103 | 20 | 190 | 8.0 | 20.9 | 0.00 | 0.00 | 0.00 | 48 | 1008.8 |
| 20260504192600 | 20 | 131 | 1.6 | 17.7 | 0.00 | 0.00 | 0.00 | 49 | 1008.8 |
| 20260504192058 | 20 | 134 | 3.2 | 14.5 | 0.00 | 0.00 | 0.00 | 49 | 1008.8 |
| 20260504191556 | 19 | 124 | 4.8 | 14.5 | 0.00 | 0.00 | 0.00 | 49 | 1009.0 |
| 20260504191052 | 20 | 158 | 8.0 | 16.1 | 0.00 | 0.00 | 0.00 | 49 | 1008.9 |
| 20260504190548 | 20 | 145 | 8.0 | 11.3 | 0.00 | 0.00 | 0.00 | 48 | 1009.0 |
| 20260504190044 | 20 | 152 | 6.4 | 14.5 | 0.00 | 0.00 | 0.00 | 49 | 1008.9 |
| 20260504185542 | 20 | 80 | 4.8 | 17.7 | 0.00 | 0.00 | 0.00 | 46 | 1009.3 |
| 20260504185038 | 20 | 134 | 1.6 | 20.9 | 0.00 | 0.00 | 0.00 | 46 | 1009.3 |
| 20260504184534 | 20 | 174 | 6.4 | 22.5 | 0.00 | 0.00 | 0.00 | 45 | 1009.1 |
| 20260504184029 | 20 | 144 | 9.7 | 12.9 | 0.00 | 0.00 | 0.00 | 46 | 1009.4 |
| 20260504183527 | 20 | 297 | 4.8 | 14.5 | 0.00 | 0.00 | 0.00 | 45 | 1009.4 |
| 20260504183025 | 19 | 232 | 11.3 | 20.9 | 0.00 | 0.00 | 0.00 | 45 | 1009.2 |
| 20260504182521 | 20 | 153 | 4.8 | 9.7 | 0.00 | 0.00 | 0.00 | 46 | 1009.8 |
| 20260504182019 | 20 | 194 | 4.8 | 11.3 | 0.00 | 0.00 | 0.00 | 45 | 1009.6 |
| 20260504181515 | 20 | 134 | 3.2 | 12.9 | 0.00 | 0.00 | 0.00 | 49 | 1009.5 |
| 20260504181014 | 19 | 135 | 14.5 | 20.9 | 0.00 | 0.00 | 0.00 | 46 | 1009.8 |
| 20260504180512 | 19 | 24 | 8.0 | 17.7 | 0.00 | 0.00 | 0.00 | 46 | 1009.6 |
| 20260504180010 | 20 | 164 | 3.2 | 16.1 | 0.00 | 0.00 | 0.00 | 47 | 1010.0 |
| 20260504175508 | 19 | 171 | 1.6 | 11.3 | 0.00 | 0.00 | 0.00 | 45 | 1009.8 |
| 20260504175004 | 19 | 226 | 4.8 | 12.9 | 0.00 | 0.00 | 0.00 | 47 | 1010.1 |
| 20260504174502 | 19 | 232 | 8.0 | 14.5 | 0.00 | 0.00 | 0.00 | 46 | 1010.0 |
| 20260504173959 | 19 | 286 | 11.3 | 20.9 | 0.00 | 0.00 | 0.00 | 44 | 1010.2 |
| 20260504173456 | 20 | 257 | 9.7 | 17.7 | 0.00 | 0.00 | 0.00 | 45 | 1009.9 |
| 20260504172953 | 20 | 101 | 3.2 | 9.7 | 0.00 | 0.00 | 0.00 | 47 | 1009.8 |
| 20260504172449 | 19 | 167 | 4.8 | 14.5 | 0.00 | 0.00 | 0.00 | 46 | 1010.1 |
| 20260504171946 | 20 | 316 | 8.0 | 14.5 | 0.00 | 0.00 | 0.00 | 46 | 1010.3 |
| 20260504171443 | 19 | 359 | 8.0 | 24.1 | 0.00 | 0.00 | 0.00 | 46 | 1010.1 |
| 20260504170940 | 19 | 199 | 3.2 | 9.7 | 0.00 | 0.00 | 0.00 | 48 | 1010.1 |
| 20260504170436 | 19 | 144 | 8.0 | 17.7 | 0.00 | 0.00 | 0.00 | 45 | 1010.2 |
| 20260504160355 | 19 | 56 | 3.2 | 20.9 | 0.00 | 0.00 | 0.00 | 39 | 1010.8 |
| 20260504150820 | 18 | 307 | 4.8 | 11.3 | 0.00 | 0.00 | 0.00 | 38 | 1011.7 |
| 20260504150316 | 18 | 271 | 8.0 | 14.5 | 0.00 | 0.00 | 0.00 | 39 | 1011.4 |
| 20260504141247 | 17 | 256 | 4.8 | 12.9 | 0.00 | 0.00 | 0.00 | 46 | 1011.9 |
| 20260504140743 | 17 | 24 | 3.2 | 9.7 | 0.00 | 0.00 | 0.00 | 45 | 1011.8 |
| 20260504140239 | 17 | 131 | 3.2 | 11.3 | 0.00 | 0.00 | 0.00 | 44 | 1011.7 |
| 20260504130707 | 15 | 184 | 3.2 | 8.0 | 0.00 | 0.00 | 0.00 | 51 | 1012.2 |
| 20260504130203 | 15 | 151 | 4.8 | 12.9 | 0.00 | 0.00 | 0.00 | 51 | 1012.4 |
| 20260504120127 | 13 | 156 | 0.0 | 1.6 | 0.00 | 0.00 | 0.00 | 55 | 1012.6 |
| 20260504110555 | 11 | 114 | 1.6 | 4.8 | 0.00 | 0.00 | 0.00 | 60 | 1012.9 |